Weather History for Vicksburg, MS

Change the Weather History Date:

Sunday, February 3, 2013

  Actual Average Record
Temperature  
Mean Temperature 50 °F 47 °F  
Max Temperature 68 °F 57 °F 78 °F (1974)
Min Temperature 31 °F 37 °F 7 °F (1951)
Degree Days  
Heating Degree Days 15 18  
Month to date heating degree days 49 54  
Since 1 July heating degree days 1436 1598  
Cooling Degree Days 0 0  
Month to date cooling degree days 0 0  
Year to date cooling degree days 18 3  
Moisture  
Dew Point 35 °F    
Average Humidity 62    
Maximum Humidity 100    
Minimum Humidity 24    
Precipitation  
Precipitation 0.00 in 0.17 in 4.30 in (1956)
Month to date precipitation 0.00 0.52  
Year to date precipitation 13.28 5.59  
Sea Level Pressure  
Sea Level Pressure 30.25 in    
Wind  
Wind Speed 4 mph (NW)    
Max Wind Speed 15 mph    
Max Gust Speed 22 mph    
Visibility 5 miles    
Events Fog    
T = Trace of Precipitation, MM = Missing Value Source: NWS Daily Summary

Daily Weather History Graph

Daily Weather History Graph

Search for Another Location

Airport:

Trip Planner

Search our weather history database for the weather conditions in past years. The results will help you decide how hot, cold, wet, or windy it might be!

Date:

Astronomy

Feb. 03, 2013 Rise Set
Actual Time 6:56 AM CST 5:39 PM CST
Civil Twilight 6:31 AM CST 6:05 PM CST
Nautical Twilight 6:01 AM CST 6:34 PM CST
Astronomical Twilight 5:32 AM CST 7:03 PM CST
Moon 12:23 AM CST (2/3) 11:19 AM CST (2/3)
Length of Visible Light 11h 34m
Length of Day
10h 42m
Waning Gibbous, 48% of the Moon is Illuminated
Feb 3
Waning Gibbous
Feb 10
New
Feb 17
First Quarter
Feb 25
Full
Mar 4
Last Quarter

Hourly Weather History & Observations

Time (CST) Temp. Windchill Dew Point Humidity Pressure Visibility Wind Dir Wind Speed Gust Speed Precip Events Conditions
12:53 AM 37.0 °F 34.5 °F 36.0 °F 96% 30.28 in 6.0 mi West 3.5 mph - N/A   Clear
1:45 AM 35.6 °F - 35.6 °F 100% 30.25 in 1.8 mi Calm Calm - N/A   Clear
1:53 AM 36.0 °F - 35.1 °F 97% 30.27 in 0.5 mi Calm Calm - N/A Fog Fog
2:46 AM 37.4 °F - 37.4 °F 100% 30.24 in 3.0 mi Calm Calm - N/A   Clear
2:53 AM 37.9 °F - 36.0 °F 93% 30.26 in 5.0 mi Calm Calm - N/A   Clear
3:01 AM 37.4 °F - 37.4 °F 100% 30.24 in 1.5 mi Calm Calm - N/A   Clear
3:09 AM 35.6 °F - 35.6 °F 100% 30.24 in 0.2 mi Calm Calm - N/A Fog Fog
3:26 AM 33.8 °F - 33.8 °F 100% 30.24 in 0.2 mi Calm Calm - N/A Fog Fog
3:53 AM 35.1 °F - 34.0 °F 96% 30.27 in 0.5 mi Calm Calm - N/A Fog Fog
4:04 AM 33.8 °F - 33.8 °F 100% 30.25 in 1.2 mi Calm Calm - N/A   Partly Cloudy
4:09 AM 33.8 °F - 33.8 °F 100% 30.25 in 3.0 mi Calm Calm - N/A   Partly Cloudy
4:15 AM 33.8 °F - 33.8 °F 100% 30.25 in 1.8 mi Calm Calm - N/A   Clear
4:22 AM 33.8 °F - 32.0 °F 93% 30.25 in 0.5 mi Calm Calm - N/A Fog Fog
4:53 AM 33.1 °F - 32.0 °F 96% 30.28 in 0.2 mi Calm Calm - N/A Fog Fog
5:50 AM 32.0 °F - 32.0 °F 100% 30.26 in 1.2 mi Calm Calm - N/A   Partly Cloudy
6:00 AM 32.0 °F - 30.2 °F 93% 30.27 in 0.5 mi Calm Calm - N/A Fog Fog
6:17 AM 33.8 °F 30.8 °F 32.0 °F 93% 30.27 in 2.5 mi South 3.5 mph - N/A   Mostly Cloudy
6:22 AM 33.8 °F 29.6 °F 32.0 °F 93% 30.27 in 0.8 mi South 4.6 mph - N/A   Mist
6:53 AM 30.9 °F - 30.9 °F 100% 30.30 in 0.2 mi Calm Calm - N/A Fog Light Freezing Fog
7:53 AM 37.9 °F - 37.9 °F 100% 30.31 in 0.5 mi Calm Calm - N/A Fog Fog
8:01 AM 39.2 °F - 39.2 °F 100% 30.28 in 1.2 mi Calm Calm - N/A   Clear
8:04 AM 41.0 °F - 39.2 °F 93% 30.28 in 3.0 mi Calm Calm - N/A   Clear
8:53 AM 48.9 °F - 42.1 °F 77% 30.31 in 10.0 mi WSW 3.5 mph - N/A   Clear
9:53 AM 57.0 °F - 39.0 °F 51% 30.30 in 10.0 mi West 4.6 mph - N/A   Clear
10:53 AM 62.1 °F - 36.0 °F 38% 30.30 in 10.0 mi WNW 11.5 mph - N/A   Clear
11:53 AM 64.9 °F - 36.0 °F 34% 30.27 in 10.0 mi NW 8.1 mph 16.1 mph N/A   Clear
12:53 PM 66.0 °F - 32.0 °F 28% 30.25 in 10.0 mi WNW 12.7 mph - N/A   Clear
1:53 PM 66.9 °F - 28.0 °F 23% 30.22 in 10.0 mi NW 11.5 mph 17.3 mph N/A   Clear
2:53 PM 66.9 °F - 30.9 °F 26% 30.21 in 10.0 mi NNW 6.9 mph - N/A   Clear
3:53 PM 66.0 °F - 30.0 °F 26% 30.19 in 10.0 mi North 8.1 mph - N/A   Clear
4:53 PM 64.0 °F - 30.9 °F 29% 30.20 in 10.0 mi NNW 5.8 mph - N/A   Clear
5:53 PM 55.9 °F - 34.0 °F 44% 30.19 in 10.0 mi North 3.5 mph - N/A   Clear
6:53 PM 48.9 °F - 37.0 °F 64% 30.19 in 10.0 mi Calm Calm - N/A   Clear
7:53 PM 48.9 °F - 37.9 °F 66% 30.20 in 10.0 mi NNE 4.6 mph - N/A   Clear
8:53 PM 51.1 °F - 35.1 °F 54% 30.19 in 10.0 mi NE 5.8 mph - N/A   Clear
9:53 PM 46.0 °F - 33.1 °F 61% 30.19 in 10.0 mi Calm Calm - N/A   Clear
10:53 PM 45.0 °F 42.6 °F 37.9 °F 76% 30.17 in 10.0 mi East 4.6 mph - N/A   Clear
11:53 PM 44.1 °F - 39.0 °F 82% 30.15 in 10.0 mi Calm Calm - N/A   Clear